User: anonymous   Login
Location: Bittkow
(50.3000°N, 19.0000°E)
Time: 13:52:01
(UTC+00:00)
Language:

Cosmos 1812 - Orbit

View from above orbital plane
View from above orbital plane
View from above satellite
View from above satellite

Ground track
Ground track

The orbit data is extracted from the following two-line orbital elements,

1 17295U 87003A   20333.49051602  .00001024  00000-0  52102-4 0  9991
2 17295  82.5132 343.8776 0005029  87.0563 273.1245 15.15712718849799
Epoch (UTC): 28 November 2020 11:46:20
Eccentricity: 0.0005029
inclination: 82.5132°
perigee height: 515 km
apogee height: 522 km
right ascension of ascending node: 343.8776°
argument of perigee: 87.0563°
revolutions per day: 15.15712718
mean anomaly at epoch: 273.1245°
orbit number at epoch: 84979

The dashed part of the orbit path shows where the satellite is in the earth's shadow,  

DLR